sat.trackr.live / text

‹ back to catalog

STARLINK-6084

NORAD 56111 · 2023-046U

PAYLOAD ACTIVE UNKNOWN

§ Identity

Operator
Country
US
Launch date
2023-03-29
Launch site
AFETR
Launch vehicle
Mass (kg)
RCS (m²)

Purposes: comms

External: N2YO · Heavens-Above · Gunter

§ Orbital elements

Epoch: 2026-09-19T22:29:38.228928Z

Period
94.27 min
Inclination
43.0045°
Eccentricity
0.0001458
Mean motion
15.27574782 rev/d
Perigee alt
482.1 km
Apogee alt
484.1 km
Semi-major
6,861.2 km
B*
5.4303e-6
RAAN
145.0071°
Arg perigee
263.7178°
Mean anomaly
96.3508°
Rev number
19,173

§ Raw data

STARLINK-60841 56111U 23046U   26262.93724802 -.00000113  00000+0  54303-5 0  99972 56111  43.0045 145.0071 0001458 263.7178  96.3508 15.27574782191732

JSON: /api/v1/satellites/56111 · /tle

For live sub-satellite position, see the globe view (requires WebGL).

§ Visibility from observer

Set your observer location to see the next 7 days of passes ≥ 10°. The values pass through the URL so the page stays shareable.

No JS? Fill the form by hand. The geolocation button needs JavaScript.